Simultaneous Nadir Overpasses (SNOs) Predictions

Prediction of SNOs between AURA and NPP Satellite Orbit:

Table of predicted SNOs for the next 14.0 days since TLE Epoch: 10/10/2014
Index Date (AURA) Time (AURA) Lat,Lon (AURA) SZA (AURA ) Date (NPP) Time (NPP) Lat,Lon (NPP) SZA (NPP ) Distance(km) Time Diff (sec)
1 10/12/2014 21:56:55 75.71, 91.11 103.73 10/12/2014 21:56:49 75.72, 91.19 103.72 2.43 6
2 10/12/2014 22:46:09 -76.37, -99.21 76.96 10/12/2014 22:47:21 -76.36, -99.31 77.00 2.85 72
3 10/15/2014 13:24:17 -74.62, 36.41 74.22 10/15/2014 13:23:28 -74.61, 36.33 74.15 2.47 49
4 10/15/2014 14:13:17 75.89,-152.48 104.49 10/15/2014 14:13:45 75.88,-152.53 104.47 1.66 28
5 10/18/2014 05:40:29 -75.25, 153.94 73.94 10/18/2014 05:40:14 -75.24, 153.90 73.92 1.13 15
6 10/18/2014
